• Join FlightAware (Why Join?)
  • Login
  • US Flag 
05:16AM EST


 

Airport Tracker/Info


-or-


 

Live Flight TrackerFlight Track Log ✈ SWA489 ✈ 07-May-2013 ✈ KTPA - KBHM

Flight Track Log - Related Links

Times and Time Zones

All times are in EDT time to prevent confusion due to time zone crossing. See the SWA489 flight status page for this flight to view local times or setup timezone preferences in your user account.

Time Position Orientation Groundspeed Altitude Reporting Facility
EDT Latitude Longitude Course Direction KTS MPH feet Rate Location/Type
09:24AM 27.9167 -82.5667 196° South 200 230 2,900  Level Tampa TRACON
09:25AM 27.9000 -82.6000 241° Southwest 212 244 5,600 2,585 Climbing Tampa TRACON
09:27AM 28.0411 -82.6503 343° North 244 281 11,000 2,722 Climbing Jacksonville Center
09:28AM 28.1353 -82.6808 344° North 288 331 14,400 3,400 Climbing Jacksonville Center
09:29AM 28.4902 -82.7833 North  Level FlightAware Approximate
09:29AM 28.2292 -82.7089 345° North 325 374 17,800  Level Jacksonville Center
09:30AM 28.3272 -82.7369 346° North 347 399 21,000 2,950 Climbing Jacksonville Center
09:31AM 28.4336 -82.7697 345° North 368 423 23,700 2,650 Climbing Jacksonville Center
09:32AM 28.5422 -82.8028 345° North 389 448 26,300 2,500 Climbing Jacksonville Center
09:33AM 28.6592 -82.8311 348° North 402 463 28,700 2,150 Climbing Jacksonville Center
09:34AM 28.7592 -82.8878 334° Northwest 408 470 30,600 2,050 Climbing Jacksonville Center
09:35AM 28.8636 -82.9567 330° Northwest 414 476 32,800 2,050 Climbing Jacksonville Center
09:36AM 28.9617 -83.0256 328° Northwest 419 482 34,700 1,750 Climbing Jacksonville Center
09:37AM 29.0639 -83.0922 330° Northwest 424 488 36,300 1,500 Climbing Jacksonville Center
09:38AM 29.1661 -83.1614 329° Northwest 424 488 37,700 850 Climbing Jacksonville Center
09:39AM 29.2703 -83.2283 331° Northwest 424 488 38,000 750 Climbing Jacksonville Center
09:40AM 29.3722 -83.2953 330° Northwest 424 488 39,200 1,000 Climbing Jacksonville Center
09:41AM 29.4722 -83.3625 330° Northwest 424 488 40,000 400 Climbing Jacksonville Center
09:42AM 29.5744 -83.4322 329° Northwest 424 488 40,000  Level Jacksonville Center
09:43AM 29.6700 -83.5069 326° Northwest 424 488 40,000  Level Jacksonville Center
09:44AM 29.7678 -83.5864 325° Northwest 424 488 40,000  Level Jacksonville Center
09:45AM 29.8633 -83.6614 326° Northwest 424 488 40,000  Level Jacksonville Center
09:46AM 29.9672 -83.7436 326° Northwest 419 482 40,000  Level Jacksonville Center
09:47AM 30.0628 -83.8214 325° Northwest 419 482 40,000  Level Jacksonville Center
09:48AM 30.1581 -83.8967 326° Northwest 419 482 40,000  Level Jacksonville Center
09:49AM 30.2514 -83.9697 326° Northwest 419 482 40,000  Level Jacksonville Center
09:50AM 30.3469 -84.0456 326° Northwest 419 482 40,000  Level Jacksonville Center
09:51AM 30.4403 -84.1214 325° Northwest 419 482 40,000  Level Jacksonville Center
09:52AM 30.5333 -84.1972 325° Northwest 419 482 40,000  Level Jacksonville Center
09:53AM 30.6222 -84.2711 324° Northwest 409 471 40,000  Level Jacksonville Center
09:54AM 30.7156 -84.3497 324° Northwest 409 471 40,000  Level Jacksonville Center
09:55AM 30.8106 -84.4261 325° Northwest 409 471 40,000 -400 Level Jacksonville Center
09:56AM 30.9014 -84.5003 325° Northwest 404 465 39,200 -1,150 Descending Jacksonville Center
09:57AM 30.9944 -84.5744 326° Northwest 404 465 37,700 -1,450 Descending Jacksonville Center
09:58AM 31.0894 -84.6539 324° Northwest 404 465 36,300 -1,342 Descending Jacksonville Center
10:00AM 31.2167 -84.7575 325° Northwest 403 464 34,300 -908 Descending Atlanta Center
10:01AM 31.3058 -84.8311 325° Northwest 403 464 34,000 -150 Descending Atlanta Center
10:02AM 31.3950 -84.9050 325° Northwest 398 458 34,000  Level Atlanta Center
10:03AM 31.4758 -84.9739 324° Northwest 386 444 34,000  Level Atlanta Center
10:04AM 31.5650 -85.0456 326° Northwest 386 444 34,000  Level Atlanta Center
10:05AM 31.6458 -85.1172 323° Northwest 376 433 34,000  Level Atlanta Center
10:06AM 31.7331 -85.1817 328° Northwest 376 433 34,000  Level Atlanta Center
10:07AM 31.8158 -85.2561 323° Northwest 376 433 34,000  Level Atlanta Center
10:08AM 31.9028 -85.3233 327° Northwest 381 438 34,000 -350 Level Atlanta Center
10:09AM 31.9875 -85.3956 324° Northwest 381 438 33,300 -800 Descending Atlanta Center
10:10AM 32.0722 -85.4703 323° Northwest 381 438 32,400 -1,050 Descending Atlanta Center
10:11AM 32.1592 -85.5378 327° Northwest 376 433 31,200 -2,000 Descending Atlanta Center
10:12AM 32.2458 -85.6131 324° Northwest 371 427 28,400 -2,500 Descending Atlanta Center
10:13AM 32.3244 -85.6783 325° Northwest 359 413 26,200 -2,150 Descending Atlanta Center
10:14AM 32.4006 -85.7436 324° Northwest 348 400 24,100 -1,900 Descending Atlanta Center
10:15AM 32.4644 -85.8039 321° Northwest 336 387 22,400 -1,900 Descending Atlanta Center
10:16AM 32.5431 -85.8672 326° Northwest 323 372 20,300 -1,200 Descending Atlanta Center
10:17AM 32.6111 -85.9228 325° Northwest 310 357 20,000 -150 Descending Atlanta Center
10:18AM 32.6872 -85.9861 325° Northwest 316 364 20,000  Level Atlanta Center
10:19AM 32.7592 -86.0519 322° Northwest 316 364 20,000 -150 Level Atlanta Center
10:20AM 32.8314 -86.1106 326° Northwest 316 364 19,700 -800 Descending Atlanta Center
10:20AM 32.8600 -86.1483 312° West 296 341 18,800 -1,900 Descending Atlanta Center
10:21AM 32.8950 -86.1689 334° Northwest 304 350 17,800 -1,967 Descending Atlanta Center
10:21AM 32.9258 -86.2042 316° Northwest 288 331 16,800 -1,900 Descending Atlanta Center
10:22AM 32.9631 -86.2250 335° Northwest 299 344 15,900 -1,800 Descending Atlanta Center
10:22AM 32.9914 -86.2603 314° West 287 330 15,000 -1,500 Descending Atlanta Center
10:23AM 33.0244 -86.2836 329° Northwest 294 338 14,400 -1,082 Descending Atlanta Center
10:23AM 33.0425 -86.3286 296° West 285 328 13,900 -1,000 Descending Atlanta Center
10:24AM 33.0669 -86.3614 312° West 283 326 13,400 -984 Descending Atlanta Center
10:24AM 33.0869 -86.4092 297° West 287 330 12,900 -900 Descending Atlanta Center
10:25AM 33.1092 -86.4419 309° West 283 326 12,500 -1,000 Descending Atlanta Center
10:25AM 33.1311 -86.4872 300° West 289 333 11,900 -1,000 Descending Atlanta Center
10:26AM 33.1536 -86.5225 307° West 288 331 11,500 -1,082 Descending Atlanta Center
10:26AM 33.1797 -86.5703 303° West 285 328 10,800 -1,300 Descending Atlanta Center
10:27AM 33.1958 -86.5981 305° West 288 331 10,200 -1,100 Descending Atlanta Center
10:27AM 33.2178 -86.6486 297° West 270 311 9,700 -1,000 Descending Atlanta Center
10:28AM 33.2361 -86.6714 314° West 281 323 9,200 -1,377 Descending Atlanta Center
10:28AM 33.2558 -86.7167 298° West 243 280 8,300 -1,500 Descending Atlanta Center
10:29AM 33.2719 -86.7394 310° West 259 298 7,700 -1,475 Descending Atlanta Center
10:29AM 33.2939 -86.7850 300° West 244 281 6,800 -1,500 Descending Atlanta Center
10:30AM 33.3342 -86.8558 304° West 249 287 5,300 -1,587 Descending Atlanta Center
10:31AM 33.3986 -86.8656 353° North 243 280 3,600 -1,180 Descending Atlanta Center
10:33AM 33.4608 -86.8800 349° North 214 246 2,900 -595 Descending Atlanta Center
10:34AM 33.5031 -86.8639 18° North 168 193 2,400 -595 Descending Atlanta Center
10:35AM 33.5228 -86.8247 59° Northeast 130 150 1,700 -744 Descending Atlanta Center
10:36AM 33.5467 -86.7856 54° Northeast 129 148 900 -800 Descending Atlanta Center
10:38AM 33.5500 -86.7500 44° Northeast  Level FlightAware Approximate